Location: Binningen
(47.7924°N, 8.7261°E)
Time: 20:32:05
(UTC+00:00)

Meteor 1-11 Rocket - Pass Details

Date: 17 May 2021
Orbit: 831 x 916 km, 81.2° (Epoch: 20 June)

Event Time Altitude Azimuth Distance (km) Brightness Sun altitude
Rises 20:04:52 0° 350° (N) 3,563 7.9 -9.6°
Reaches altitude 10° 20:07:24 10° 353° (N) 2,612 7.1 -9.9°
Maximum altitude 20:13:21 68° 76° (ENE) 971 3.9 -10.6°
Enters shadow 20:18:46 12° 159° (SSE) 2,406 5.5 -11.2°
